| time (UTC) | temp F | wind direction | speed MPH | gust MPH | rain 1hr in | rain 24hr in | rain mn in | humidity % | barometer mb |
| 20260510060539 | 51 | 197 | 11.0 | 16.0 | 0.00 | 0.07 | 0.00 | 89 | 1003.7 |
| 20260510060048 | 51 | 224 | 9.0 | 12.0 | 0.00 | 0.07 | 0.00 | 89 | 1003.6 |
| 20260510055539 | 51 | 207 | 5.0 | 14.0 | 0.00 | 0.07 | 0.00 | 89 | 1003.7 |
| 20260510055039 | 52 | 211 | 7.0 | 14.0 | 0.00 | 0.07 | 0.00 | 89 | 1003.7 |
| 20260510054546 | 52 | 189 | 9.0 | 14.0 | 0.00 | 0.07 | 0.00 | 89 | 1003.6 |
| 20260510054039 | 52 | 192 | 9.0 | 14.0 | 0.00 | 0.07 | 0.00 | 88 | 1003.6 |
| 20260510053539 | 52 | 211 | 9.0 | 16.0 | 0.00 | 0.07 | 0.00 | 88 | 1003.6 |
| 20260510053059 | 52 | 202 | 9.0 | 16.0 | 0.00 | 0.07 | 0.00 | 88 | 1003.5 |
| 20260510052540 | 52 | 193 | 8.0 | 14.0 | 0.00 | 0.07 | 0.00 | 89 | 1003.5 |
| 20260510052040 | 52 | 239 | 3.0 | 9.0 | 0.00 | 0.07 | 0.00 | 88 | 1003.6 |
| 20260510051551 | 52 | 247 | 4.0 | 17.0 | 0.00 | 0.07 | 0.00 | 88 | 1003.5 |
| 20260510051039 | 52 | 290 | 4.0 | 17.0 | 0.00 | 0.07 | 0.00 | 88 | 1003.3 |
| 20260510050538 | 52 | 163 | 10.0 | 17.0 | 0.00 | 0.07 | 0.00 | 88 | 1003.1 |
| 20260510050050 | 52 | 207 | 9.0 | 15.0 | 0.00 | 0.07 | 0.00 | 88 | 1003.4 |
| 20260510045536 | 52 | 207 | 9.0 | 15.0 | 0.00 | 0.07 | 0.00 | 88 | 1003.2 |
| 20260510045121 | 52 | 192 | 10.0 | 15.0 | 0.00 | 0.07 | 0.00 | 88 | 1003.1 |
| 20260510044551 | 53 | 194 | 8.0 | 14.0 | 0.00 | 0.07 | 0.00 | 88 | 1003.0 |
| 20260510044036 | 53 | 217 | 8.0 | 13.0 | 0.00 | 0.07 | 0.00 | 88 | 1002.9 |
| 20260510043538 | 53 | 219 | 8.0 | 12.0 | 0.00 | 0.07 | 0.00 | 88 | 1002.8 |
| 20260510043100 | 53 | 207 | 8.0 | 12.0 | 0.00 | 0.07 | 0.00 | 88 | 1002.7 |
| 20260510042539 | 53 | 197 | 8.0 | 14.0 | 0.00 | 0.07 | 0.00 | 87 | 1002.4 |
| 20260510042044 | 53 | 211 | 8.0 | 15.0 | 0.00 | 0.07 | 0.00 | 87 | 1002.5 |
| 20260510041549 | 53 | 226 | 8.0 | 15.0 | 0.00 | 0.07 | 0.00 | 87 | 1002.4 |
| 20260510041039 | 53 | 216 | 9.0 | 15.0 | 0.00 | 0.07 | 0.00 | 87 | 1002.3 |
| 20260510040538 | 53 | 202 | 8.0 | 13.0 | 0.00 | 0.07 | 0.00 | 87 | 1002.3 |
| 20260510040046 | 53 | 202 | 8.0 | 14.0 | 0.00 | 0.07 | 0.00 | 87 | 1002.1 |
| 20260510035539 | 53 | 192 | 9.0 | 16.0 | 0.00 | 0.07 | 0.07 | 86 | 1002.0 |
| 20260510035039 | 54 | 213 | 9.0 | 16.0 | 0.00 | 0.07 | 0.07 | 86 | 1002.3 |
| 20260510034544 | 54 | 207 | 9.0 | 16.0 | 0.00 | 0.07 | 0.07 | 86 | 1002.3 |
| 20260510034038 | 54 | 228 | 9.0 | 16.0 | 0.00 | 0.07 | 0.07 | 86 | 1002.4 |
| 20260510033537 | 54 | 207 | 10.0 | 16.0 | 0.00 | 0.07 | 0.07 | 86 | 1002.3 |
| 20260510033057 | 54 | 217 | 9.0 | 15.0 | 0.00 | 0.07 | 0.07 | 85 | 1002.4 |
| 20260510032538 | 54 | 213 | 10.0 | 16.0 | 0.02 | 0.07 | 0.07 | 85 | 1002.3 |
| 20260510032039 | 54 | 202 | 9.0 | 19.0 | 0.02 | 0.07 | 0.07 | 85 | 1002.5 |
| 20260510031549 | 54 | 191 | 10.0 | 19.0 | 0.03 | 0.07 | 0.07 | 85 | 1002.5 |
| 20260510031036 | 54 | 213 | 9.0 | 20.0 | 0.04 | 0.07 | 0.07 | 85 | 1002.5 |
| 20260510030540 | 54 | 184 | 11.0 | 20.0 | 0.07 | 0.07 | 0.07 | 85 | 1002.4 |
| 20260510030047 | 54 | 171 | 12.0 | 20.0 | 0.07 | 0.07 | 0.07 | 85 | 1002.3 |
| 20260510025537 | 54 | 182 | 10.0 | 19.0 | 0.07 | 0.07 | 0.07 | 85 | 1002.3 |
| 20260510025038 | 54 | 190 | 10.0 | 18.0 | 0.07 | 0.07 | 0.07 | 84 | 1002.3 |
| 20260510024550 | 54 | 202 | 11.0 | 17.0 | 0.07 | 0.07 | 0.07 | 83 | 1002.2 |
| 20260510024039 | 55 | 186 | 11.0 | 17.0 | 0.07 | 0.07 | 0.07 | 82 | 1002.3 |
| 20260510023536 | 55 | 197 | 11.0 | 17.0 | 0.07 | 0.07 | 0.07 | 80 | 1002.3 |
| 20260510023048 | 55 | 187 | 10.0 | 17.0 | 0.06 | 0.06 | 0.06 | 78 | 1002.4 |
| 20260510022537 | 56 | 211 | 10.0 | 17.0 | 0.05 | 0.05 | 0.05 | 77 | 1002.3 |
| 20260510022038 | 56 | 192 | 10.0 | 17.0 | 0.05 | 0.05 | 0.05 | 76 | 1002.1 |
| 20260510021549 | 56 | 156 | 9.0 | 16.0 | 0.04 | 0.04 | 0.04 | 74 | 1001.8 |
| 20260510021037 | 57 | 169 | 11.0 | 17.0 | 0.02 | 0.02 | 0.02 | 72 | 1001.7 |
| 20260510020538 | 58 | 166 | 11.0 | 17.0 | 0.00 | 0.00 | 0.00 | 69 | 1001.6 |
| 20260510020050 | 58 | 153 | 11.0 | 17.0 | 0.00 | 0.00 | 0.00 | 68 | 1001.6 |
| 20260510015537 | 58 | 167 | 13.0 | 17.0 | 0.00 | 0.00 | 0.00 | 67 | 1001.5 |
| 20260510015037 | 58 | 163 | 11.0 | 20.0 | 0.00 | 0.00 | 0.00 | 67 | 1001.4 |
| 20260510014550 | 59 | 161 | 12.0 | 20.0 | 0.00 | 0.00 | 0.00 | 66 | 1001.5 |
| 20260510014037 | 59 | 144 | 10.0 | 17.0 | 0.00 | 0.00 | 0.00 | 66 | 1001.6 |
| 20260510013537 | 59 | 146 | 13.0 | 18.0 | 0.00 | 0.00 | 0.00 | 65 | 1001.7 |
| 20260510013053 | 59 | 169 | 11.0 | 18.0 | 0.00 | 0.00 | 0.00 | 65 | 1001.9 |
| 20260510012539 | 59 | 140 | 10.0 | 16.0 | 0.00 | 0.00 | 0.00 | 64 | 1001.8 |
| 20260510012036 | 59 | 168 | 8.0 | 16.0 | 0.00 | 0.00 | 0.00 | 63 | 1001.9 |
| 20260510011550 | 59 | 157 | 10.0 | 16.0 | 0.00 | 0.00 | 0.00 | 61 | 1001.8 |
| 20260510011036 | 60 | 141 | 9.0 | 15.0 | 0.00 | 0.00 | 0.00 | 61 | 1001.8 |
| 20260510010535 | 60 | 156 | 10.0 | 14.0 | 0.00 | 0.00 | 0.00 | 60 | 1001.8 |
| 20260510010050 | 60 | 165 | 9.0 | 15.0 | 0.00 | 0.00 | 0.00 | 60 | 1001.9 |
| 20260510005536 | 60 | 163 | 10.0 | 15.0 | 0.00 | 0.00 | 0.00 | 59 | 1001.9 |
| 20260510005037 | 60 | 155 | 8.0 | 13.0 | 0.00 | 0.00 | 0.00 | 58 | 1001.9 |
| 20260510004553 | 60 | 153 | 7.0 | 13.0 | 0.00 | 0.00 | 0.00 | 57 | 1001.9 |
| 20260510004036 | 60 | 190 | 9.0 | 13.0 | 0.00 | 0.00 | 0.00 | 56 | 1001.9 |
| 20260510003535 | 60 | 154 | 9.0 | 14.0 | 0.00 | 0.00 | 0.00 | 56 | 1001.9 |
| 20260510003049 | 60 | 165 | 8.0 | 14.0 | 0.00 | 0.00 | 0.00 | 56 | 1001.9 |
| 20260510002541 | 61 | 164 | 9.0 | 17.0 | 0.00 | 0.00 | 0.00 | 56 | 1002.0 |
| 20260510002037 | 61 | 159 | 11.0 | 18.0 | 0.00 | 0.00 | 0.00 | 56 | 1002.1 |
| 20260510001549 | 61 | 157 | 9.0 | 18.0 | 0.00 | 0.00 | 0.00 | 57 | 1002.1 |
| 20260510001036 | 61 | 175 | 11.0 | 17.0 | 0.00 | 0.00 | 0.00 | 57 | 1002.0 |
| 20260510000539 | 61 | 148 | 12.0 | 17.0 | 0.00 | 0.00 | 0.00 | 57 | 1002.1 |
| 20260510000057 | 61 | 164 | 11.0 | 16.0 | 0.00 | 0.00 | 0.00 | 58 | 1002.2 |
| 20260509235536 | 61 | 163 | 11.0 | 17.0 | 0.00 | 0.00 | 0.00 | 58 | 1002.3 |
| 20260509235037 | 61 | 184 | 11.0 | 17.0 | 0.00 | 0.00 | 0.00 | 58 | 1002.4 |
| 20260509234545 | 61 | 173 | 9.0 | 17.0 | 0.00 | 0.00 | 0.00 | 58 | 1002.6 |
| 20260509234035 | 61 | 169 | 12.0 | 17.0 | 0.00 | 0.00 | 0.00 | 58 | 1002.6 |
| 20260509233534 | 61 | 148 | 10.0 | 19.0 | 0.00 | 0.00 | 0.00 | 58 | 1002.7 |
| 20260509233045 | 61 | 156 | 11.0 | 19.0 | 0.00 | 0.00 | 0.00 | 58 | 1002.8 |
| 20260509232535 | 62 | 171 | 9.0 | 19.0 | 0.00 | 0.00 | 0.00 | 58 | 1002.8 |
| 20260509232035 | 62 | 186 | 10.0 | 20.0 | 0.00 | 0.00 | 0.00 | 57 | 1002.8 |
| 20260509231545 | 62 | 177 | 12.0 | 21.0 | 0.00 | 0.00 | 0.00 | 57 | 1002.9 |
| 20260509231035 | 62 | 177 | 10.0 | 23.0 | 0.00 | 0.00 | 0.00 | 56 | 1002.9 |
| 20260509230534 | 62 | 169 | 14.0 | 23.0 | 0.00 | 0.00 | 0.00 | 56 | 1002.8 |
| 20260509230044 | 62 | 176 | 15.0 | 23.0 | 0.00 | 0.00 | 0.00 | 55 | 1002.8 |
| 20260509225537 | 63 | 182 | 13.0 | 20.0 | 0.00 | 0.00 | 0.00 | 54 | 1002.8 |
| 20260509225036 | 63 | 177 | 14.0 | 19.0 | 0.00 | 0.00 | 0.00 | 53 | 1002.6 |
| 20260509224549 | 63 | 187 | 11.0 | 16.0 | 0.00 | 0.00 | 0.00 | 50 | 1002.6 |
| 20260509224038 | 63 | 202 | 10.0 | 16.0 | 0.00 | 0.00 | 0.00 | 47 | 1002.6 |
| 20260509223536 | 64 | 207 | 9.0 | 18.0 | 0.00 | 0.00 | 0.00 | 46 | 1002.6 |
| 20260509223047 | 64 | 167 | 9.0 | 18.0 | 0.00 | 0.00 | 0.00 | 46 | 1002.6 |
| 20260509222537 | 64 | 178 | 12.0 | 19.0 | 0.00 | 0.00 | 0.00 | 46 | 1002.5 |
| 20260509222037 | 64 | 188 | 8.0 | 20.0 | 0.00 | 0.00 | 0.00 | 45 | 1002.4 |
| 20260509221546 | 64 | 168 | 10.0 | 22.0 | 0.00 | 0.00 | 0.00 | 45 | 1002.5 |
| 20260509221036 | 64 | 175 | 14.0 | 22.0 | 0.00 | 0.00 | 0.00 | 46 | 1002.5 |
| 20260509220537 | 64 | 180 | 16.0 | 22.0 | 0.00 | 0.00 | 0.00 | 46 | 1002.5 |
| 20260509220049 | 64 | 190 | 13.0 | 19.0 | 0.00 | 0.00 | 0.00 | 45 | 1002.3 |
| 20260509215537 | 64 | 161 | 8.0 | 18.0 | 0.00 | 0.00 | 0.00 | 43 | 1002.3 |
| 20260509215035 | 64 | 202 | 11.0 | 21.0 | 0.00 | 0.00 | 0.00 | 42 | 1002.3 |
| 20260509214559 | 64 | 187 | 12.0 | 23.0 | 0.00 | 0.00 | 0.00 | 41 | 1002.3 |
| 20260509214035 | 64 | 168 | 14.0 | 23.0 | 0.00 | 0.00 | 0.00 | 41 | 1002.6 |
| 20260509213535 | 65 | 207 | 12.0 | 21.0 | 0.00 | 0.00 | 0.00 | 41 | 1002.7 |
| 20260509213048 | 65 | 163 | 16.0 | 21.0 | 0.00 | 0.00 | 0.00 | 41 | 1002.6 |
| 20260509212537 | 65 | 170 | 12.0 | 24.0 | 0.00 | 0.00 | 0.00 | 37 | 1002.6 |
| 20260509212037 | 64 | 179 | 11.0 | 24.0 | 0.00 | 0.00 | 0.00 | 42 | 1002.6 |
| 20260509211547 | 65 | 169 | 11.0 | 19.0 | 0.00 | 0.00 | 0.00 | 42 | 1002.7 |
| 20260509211034 | 65 | 190 | 12.0 | 23.0 | 0.00 | 0.00 | 0.00 | 42 | 1002.8 |
| 20260509210535 | 65 | 166 | 13.0 | 23.0 | 0.00 | 0.00 | 0.00 | 42 | 1002.7 |
| 20260509210049 | 65 | 167 | 13.0 | 22.0 | 0.00 | 0.00 | 0.00 | 41 | 1002.7 |
| 20260509205536 | 65 | 207 | 13.0 | 20.0 | 0.00 | 0.00 | 0.00 | 40 | 1002.7 |
| 20260509205037 | 65 | 211 | 13.0 | 20.0 | 0.00 | 0.00 | 0.00 | 39 | 1002.8 |
| 20260509204549 | 65 | 213 | 12.0 | 19.0 | 0.00 | 0.00 | 0.00 | 40 | 1002.8 |
| 20260509204037 | 65 | 161 | 12.0 | 23.0 | 0.00 | 0.00 | 0.00 | 38 | 1002.8 |
| 20260509203536 | 65 | 151 | 14.0 | 23.0 | 0.00 | 0.00 | 0.00 | 36 | 1002.8 |
| 20260509203059 | 65 | 165 | 13.0 | 19.0 | 0.00 | 0.00 | 0.00 | 37 | 1002.8 |
| 20260509202537 | 65 | 207 | 14.0 | 20.0 | 0.00 | 0.00 | 0.00 | 34 | 1002.9 |
| 20260509202037 | 65 | 159 | 13.0 | 20.0 | 0.00 | 0.00 | 0.00 | 34 | 1002.8 |
| 20260509201553 | 65 | 125 | 14.0 | 23.0 | 0.00 | 0.00 | 0.00 | 35 | 1002.8 |
| 20260509201036 | 65 | 159 | 17.0 | 23.0 | 0.00 | 0.00 | 0.00 | 33 | 1002.9 |
| 20260509200536 | 65 | 147 | 14.0 | 23.0 | 0.00 | 0.00 | 0.00 | 33 | 1002.8 |
| 20260509200047 | 65 | 164 | 14.0 | 25.0 | 0.00 | 0.00 | 0.00 | 31 | 1003.0 |
| 20260509195536 | 65 | 159 | 14.0 | 25.0 | 0.00 | 0.00 | 0.00 | 30 | 1003.0 |
| 20260509195037 | 66 | 202 | 13.0 | 25.0 | 0.00 | 0.00 | 0.00 | 31 | 1002.9 |
| 20260509194548 | 65 | 179 | 14.0 | 23.0 | 0.00 | 0.00 | 0.00 | 32 | 1002.9 |
| 20260509194037 | 66 | 188 | 12.0 | 25.0 | 0.00 | 0.00 | 0.00 | 31 | 1003.1 |
| 20260509193536 | 65 | 167 | 14.0 | 25.0 | 0.00 | 0.00 | 0.00 | 31 | 1003.0 |
| 20260509193055 | 65 | 197 | 15.0 | 25.0 | 0.00 | 0.00 | 0.00 | 32 | 1003.1 |
| 20260509192537 | 65 | 182 | 14.0 | 22.0 | 0.00 | 0.00 | 0.00 | 32 | 1003.3 |
| 20260509192036 | 64 | 142 | 13.0 | 26.0 | 0.00 | 0.00 | 0.00 | 31 | 1003.4 |
| 20260509191557 | 64 | 163 | 17.0 | 26.0 | 0.00 | 0.00 | 0.00 | 32 | 1003.5 |
| 20260509191036 | 64 | 167 | 16.0 | 25.0 | 0.00 | 0.00 | 0.00 | 31 | 1003.3 |
| 20260509190541 | 64 | 132 | 16.0 | 24.0 | 0.00 | 0.00 | 0.00 | 30 | 1003.4 |
| 20260509190050 | 64 | 178 | 12.0 | 24.0 | 0.00 | 0.00 | 0.00 | 31 | 1003.5 |
| 20260509185538 | 64 | 155 | 14.0 | 24.0 | 0.00 | 0.00 | 0.00 | 31 | 1003.7 |
| 20260509185038 | 64 | 175 | 15.0 | 24.0 | 0.00 | 0.00 | 0.00 | 30 | 1003.8 |
| 20260509184557 | 64 | 138 | 17.0 | 24.0 | 0.00 | 0.00 | 0.00 | 30 | 1003.8 |
| 20260509184038 | 64 | 153 | 15.0 | 23.0 | 0.00 | 0.00 | 0.00 | 31 | 1003.8 |
| 20260509183537 | 64 | 186 | 12.0 | 23.0 | 0.00 | 0.00 | 0.00 | 31 | 1004.0 |
| 20260509183059 | 63 | 146 | 14.0 | 23.0 | 0.00 | 0.00 | 0.00 | 30 | 1004.2 |
| 20260509182539 | 64 | 151 | 16.0 | 23.0 | 0.00 | 0.00 | 0.00 | 31 | 1004.3 |
| 20260509182037 | 64 | 156 | 11.0 | 20.0 | 0.00 | 0.00 | 0.00 | 31 | 1004.4 |
| 20260509181546 | 64 | 168 | 14.0 | 21.0 | 0.00 | 0.00 | 0.00 | 31 | 1004.5 |
| 20260509181038 | 64 | 173 | 13.0 | 21.0 | 0.00 | 0.00 | 0.00 | 30 | 1004.6 |
| 20260509180538 | 64 | 180 | 11.0 | 19.0 | 0.00 | 0.00 | 0.00 | 31 | 1004.6 |
| 20260509180045 | 63 | 192 | 11.0 | 21.0 | 0.00 | 0.00 | 0.00 | 32 | 1004.4 |
| 20260509175538 | 63 | 140 | 12.0 | 26.0 | 0.00 | 0.00 | 0.00 | 31 | 1004.5 |
| 20260509175038 | 63 | 157 | 18.0 | 26.0 | 0.00 | 0.00 | 0.00 | 30 | 1004.7 |
| 20260509174607 | 63 | 175 | 12.0 | 28.0 | 0.00 | 0.00 | 0.00 | 31 | 1004.6 |
| 20260509174037 | 63 | 127 | 16.0 | 28.0 | 0.00 | 0.00 | 0.00 | 30 | 1004.9 |
| 20260509173537 | 63 | 153 | 15.0 | 28.0 | 0.00 | 0.00 | 0.00 | 33 | 1004.8 |
| 20260509173051 | 63 | 165 | 11.0 | 26.0 | 0.00 | 0.00 | 0.00 | 33 | 1004.8 |
| 20260509172538 | 62 | 168 | 15.0 | 26.0 | 0.00 | 0.00 | 0.00 | 32 | 1004.9 |
| 20260509172037 | 62 | 146 | 16.0 | 26.0 | 0.00 | 0.00 | 0.00 | 32 | 1005.0 |
| 20260509171547 | 62 | 168 | 17.0 | 26.0 | 0.00 | 0.00 | 0.00 | 32 | 1004.8 |
| 20260509171037 | 62 | 149 | 12.0 | 23.0 | 0.00 | 0.00 | 0.00 | 34 | 1004.9 |
| 20260509170538 | 63 | 154 | 16.0 | 22.0 | 0.00 | 0.00 | 0.00 | 33 | 1005.1 |
| 20260509170045 | 63 | 159 | 12.0 | 22.0 | 0.00 | 0.00 | 0.00 | 32 | 1005.1 |
| 20260509165536 | 63 | 161 | 9.0 | 22.0 | 0.00 | 0.00 | 0.00 | 32 | 1005.4 |
| 20260509165041 | 62 | 160 | 13.0 | 23.0 | 0.00 | 0.00 | 0.00 | 31 | 1005.7 |
| 20260509164546 | 62 | 156 | 12.0 | 23.0 | 0.00 | 0.00 | 0.00 | 32 | 1005.6 |
| 20260509164035 | 62 | 186 | 13.0 | 21.0 | 0.00 | 0.00 | 0.00 | 32 | 1005.7 |
| 20260509163537 | 62 | 184 | 13.0 | 21.0 | 0.00 | 0.00 | 0.00 | 32 | 1005.8 |
| 20260509163048 | 62 | 167 | 17.0 | 21.0 | 0.00 | 0.00 | 0.00 | 32 | 1006.0 |
| 20260509162535 | 62 | 153 | 12.0 | 20.0 | 0.00 | 0.00 | 0.00 | 34 | 1006.1 |
| 20260509162037 | 62 | 197 | 12.0 | 23.0 | 0.00 | 0.00 | 0.00 | 34 | 1006.1 |
| 20260509161549 | 61 | 188 | 12.0 | 23.0 | 0.00 | 0.00 | 0.00 | 32 | 1006.2 |
| 20260509161037 | 61 | 197 | 12.0 | 23.0 | 0.00 | 0.00 | 0.00 | 34 | 1006.4 |
| 20260509160538 | 61 | 156 | 11.0 | 24.0 | 0.00 | 0.00 | 0.00 | 34 | 1006.2 |
| 20260509160051 | 60 | 150 | 15.0 | 24.0 | 0.00 | 0.00 | 0.00 | 34 | 1006.2 |
| 20260509155538 | 60 | 152 | 16.0 | 22.0 | 0.00 | 0.00 | 0.00 | 34 | 1006.5 |
| 20260509155036 | 60 | 192 | 12.0 | 22.0 | 0.00 | 0.00 | 0.00 | 34 | 1006.7 |
| 20260509154549 | 60 | 178 | 16.0 | 23.0 | 0.00 | 0.00 | 0.00 | 36 | 1006.6 |
| 20260509154038 | 60 | 185 | 15.0 | 24.0 | 0.00 | 0.00 | 0.00 | 36 | 1006.7 |
| 20260509153538 | 60 | 202 | 13.0 | 24.0 | 0.00 | 0.00 | 0.00 | 36 | 1006.8 |
| 20260509153055 | 60 | 153 | 15.0 | 20.0 | 0.00 | 0.00 | 0.00 | 36 | 1006.8 |
| 20260509152541 | 60 | 163 | 10.0 | 21.0 | 0.00 | 0.00 | 0.00 | 39 | 1007.0 |
| 20260509152038 | 60 | 222 | 10.0 | 21.0 | 0.00 | 0.00 | 0.00 | 40 | 1007.1 |
| 20260509151544 | 59 | 167 | 12.0 | 21.0 | 0.00 | 0.00 | 0.00 | 41 | 1007.3 |
| 20260509151037 | 59 | 179 | 12.0 | 21.0 | 0.00 | 0.00 | 0.00 | 42 | 1007.5 |
| 20260509150535 | 59 | 222 | 13.0 | 21.0 | 0.00 | 0.00 | 0.00 | 42 | 1007.7 |
| 20260509150047 | 59 | 186 | 7.0 | 20.0 | 0.00 | 0.00 | 0.00 | 43 | 1007.6 |
| 20260509145538 | 58 | 219 | 13.0 | 19.0 | 0.00 | 0.00 | 0.00 | 43 | 1007.8 |
| 20260509145035 | 58 | 169 | 12.0 | 19.0 | 0.00 | 0.00 | 0.00 | 43 | 1007.7 |
| 20260509144547 | 58 | 159 | 12.0 | 19.0 | 0.00 | 0.00 | 0.00 | 46 | 1007.8 |
| 20260509144037 | 57 | 167 | 11.0 | 18.0 | 0.00 | 0.00 | 0.00 | 46 | 1007.8 |
| 20260509143537 | 57 | 190 | 10.0 | 18.0 | 0.00 | 0.00 | 0.00 | 48 | 1007.9 |
| 20260509143049 | 56 | 164 | 12.0 | 18.0 | 0.00 | 0.00 | 0.00 | 48 | 1007.8 |
| 20260509142537 | 55 | 207 | 8.0 | 16.0 | 0.00 | 0.00 | 0.00 | 51 | 1007.9 |
| 20260509142035 | 54 | 211 | 8.0 | 13.0 | 0.00 | 0.00 | 0.00 | 53 | 1008.1 |
| 20260509141547 | 54 | 131 | 5.0 | 10.0 | 0.00 | 0.00 | 0.00 | 54 | 1008.1 |
| 20260509141038 | 54 | 81 | 4.0 | 8.0 | 0.00 | 0.00 | 0.00 | 53 | 1008.1 |
| 20260509140537 | 53 | 158 | 2.0 | 15.0 | 0.00 | 0.00 | 0.00 | 53 | 1008.1 |
| 20260509140055 | 52 | 86 | 8.0 | 15.0 | 0.00 | 0.00 | 0.00 | 53 | 1008.1 |
| 20260509135541 | 52 | 215 | 3.0 | 10.0 | 0.00 | 0.00 | 0.00 | 54 | 1008.3 |
| 20260509135038 | 51 | 163 | 5.0 | 12.0 | 0.00 | 0.00 | 0.00 | 54 | 1008.4 |
| 20260509134551 | 51 | 144 | 5.0 | 12.0 | 0.00 | 0.00 | 0.00 | 55 | 1008.3 |
| 20260509134037 | 50 | 197 | 3.0 | 9.0 | 0.00 | 0.00 | 0.00 | 55 | 1008.5 |
| 20260509133537 | 50 | 186 | 2.0 | 8.0 | 0.00 | 0.00 | 0.00 | 56 | 1008.5 |
| 20260509133046 | 50 | 128 | 4.0 | 15.0 | 0.00 | 0.00 | 0.00 | 56 | 1008.6 |
| 20260509132538 | 49 | 190 | 5.0 | 15.0 | 0.00 | 0.00 | 0.00 | 56 | 1008.6 |
| 20260509132040 | 49 | 132 | 3.0 | 5.0 | 0.00 | 0.00 | 0.00 | 56 | 1008.7 |
| 20260509131550 | 49 | 140 | 2.0 | 7.0 | 0.00 | 0.00 | 0.00 | 58 | 1008.7 |
| 20260509131037 | 48 | 138 | 2.0 | 7.0 | 0.00 | 0.00 | 0.00 | 57 | 1008.7 |
| 20260509130538 | 48 | 143 | 3.0 | 7.0 | 0.00 | 0.00 | 0.00 | 57 | 1008.8 |
| 20260509130100 | 48 | 145 | 2.0 | 7.0 | 0.00 | 0.00 | 0.00 | 57 | 1008.8 |
| 20260509125538 | 47 | 137 | 1.0 | 5.0 | 0.00 | 0.00 | 0.00 | 59 | 1008.9 |
| 20260509125038 | 47 | 138 | 3.0 | 10.0 | 0.00 | 0.00 | 0.00 | 58 | 1008.9 |
| 20260509124552 | 47 | 140 | 3.0 | 10.0 | 0.00 | 0.00 | 0.00 | 59 | 1009.0 |
| 20260509124038 | 47 | 157 | 4.0 | 8.0 | 0.00 | 0.00 | 0.00 | 59 | 1008.9 |
| 20260509123537 | 46 | 155 | 4.0 | 9.0 | 0.00 | 0.00 | 0.00 | 60 | 1009.0 |
| 20260509123051 | 46 | 127 | 4.0 | 12.0 | 0.00 | 0.00 | 0.00 | 62 | 1009.0 |
| 20260509122538 | 45 | 170 | 5.0 | 12.0 | 0.00 | 0.00 | 0.00 | 62 | 1009.1 |
| 20260509122037 | 45 | 163 | 2.0 | 7.0 | 0.00 | 0.00 | 0.00 | 64 | 1009.0 |
| 20260509121547 | 44 | 112 | 3.0 | 7.0 | 0.00 | 0.00 | 0.00 | 65 | 1009.0 |
| 20260509121038 | 44 | 140 | 3.0 | 7.0 | 0.00 | 0.00 | 0.00 | 66 | 1009.0 |
| 20260509120537 | 44 | 147 | 3.0 | 7.0 | 0.00 | 0.00 | 0.00 | 66 | 1009.0 |
| 20260509120049 | 43 | 107 | 3.0 | 6.0 | 0.00 | 0.00 | 0.00 | 67 | 1008.9 |
| 20260509115537 | 43 | 124 | 4.0 | 7.0 | 0.00 | 0.00 | 0.00 | 68 | 1009.0 |
| 20260509115038 | 43 | 125 | 3.0 | 7.0 | 0.00 | 0.00 | 0.00 | 68 | 1009.0 |
| 20260509114557 | 42 | 137 | 3.0 | 7.0 | 0.00 | 0.00 | 0.00 | 68 | 1009.0 |
| 20260509114038 | 42 | 149 | 3.0 | 6.0 | 0.00 | 0.00 | 0.00 | 70 | 1009.0 |
| 20260509113537 | 42 | 121 | 3.0 | 7.0 | 0.00 | 0.00 | 0.00 | 70 | 1008.9 |
| 20260509113055 | 42 | 99 | 4.0 | 7.0 | 0.00 | 0.00 | 0.00 | 70 | 1009.0 |
| 20260509112537 | 42 | 96 | 4.0 | 8.0 | 0.00 | 0.00 | 0.00 | 71 | 1008.9 |
| 20260509112037 | 41 | 92 | 4.0 | 8.0 | 0.00 | 0.00 | 0.00 | 71 | 1008.9 |
| 20260509111548 | 41 | 90 | 3.0 | 7.0 | 0.00 | 0.00 | 0.00 | 71 | 1008.9 |
| 20260509111037 | 41 | 107 | 3.0 | 7.0 | 0.00 | 0.00 | 0.00 | 72 | 1008.9 |
| 20260509110537 | 41 | 130 | 3.0 | 7.0 | 0.00 | 0.00 | 0.00 | 72 | 1008.7 |
| 20260509110045 | 40 | 133 | 4.0 | 7.0 | 0.00 | 0.00 | 0.00 | 73 | 1008.8 |
| 20260509105538 | 40 | 115 | 2.0 | 8.0 | 0.00 | 0.00 | 0.00 | 73 | 1008.8 |
| 20260509105036 | 40 | 132 | 3.0 | 8.0 | 0.00 | 0.00 | 0.00 | 74 | 1008.8 |
| 20260509104547 | 40 | 103 | 5.0 | 8.0 | 0.00 | 0.00 | 0.00 | 74 | 1008.7 |
| 20260509104037 | 40 | 134 | 4.0 | 7.0 | 0.00 | 0.00 | 0.00 | 75 | 1008.7 |
| 20260509103537 | 40 | 106 | 3.0 | 8.0 | 0.00 | 0.00 | 0.00 | 75 | 1008.7 |
| 20260509103059 | 40 | 109 | 5.0 | 8.0 | 0.00 | 0.00 | 0.00 | 75 | 1008.6 |
| 20260509102535 | 40 | 121 | 5.0 | 7.0 | 0.00 | 0.00 | 0.00 | 75 | 1008.6 |
| 20260509102038 | 40 | 122 | 5.0 | 8.0 | 0.00 | 0.00 | 0.00 | 75 | 1008.7 |
| 20260509101600 | 40 | 119 | 4.0 | 8.0 | 0.00 | 0.00 | 0.00 | 75 | 1008.6 |
| 20260509101036 | 40 | 107 | 4.0 | 7.0 | 0.00 | 0.00 | 0.00 | 75 | 1008.6 |
| 20260509100538 | 40 | 122 | 4.0 | 7.0 | 0.00 | 0.00 | 0.00 | 75 | 1008.6 |
| 20260509100047 | 40 | 128 | 4.0 | 7.0 | 0.00 | 0.00 | 0.00 | 75 | 1008.6 |
| 20260509095535 | 40 | 124 | 5.0 | 7.0 | 0.00 | 0.00 | 0.00 | 75 | 1008.5 |
| 20260509095036 | 40 | 132 | 3.0 | 7.0 | 0.00 | 0.00 | 0.00 | 75 | 1008.4 |
| 20260509094602 | 40 | 115 | 3.0 | 7.0 | 0.00 | 0.00 | 0.00 | 74 | 1008.5 |
| 20260509094039 | 40 | 121 | 3.0 | 6.0 | 0.00 | 0.00 | 0.00 | 74 | 1008.5 |
| 20260509093536 | 40 | 111 | 3.0 | 7.0 | 0.00 | 0.00 | 0.00 | 74 | 1008.5 |
| 20260509093043 | 40 | 115 | 3.0 | 7.0 | 0.00 | 0.00 | 0.00 | 74 | 1008.5 |
| 20260509092535 | 40 | 106 | 4.0 | 7.0 | 0.00 | 0.00 | 0.00 | 74 | 1008.4 |
| 20260509092037 | 40 | 106 | 3.0 | 6.0 | 0.00 | 0.00 | 0.00 | 74 | 1008.5 |
| 20260509091548 | 40 | 119 | 3.0 | 6.0 | 0.00 | 0.00 | 0.00 | 73 | 1008.6 |
| 20260509091037 | 40 | 119 | 3.0 | 6.0 | 0.00 | 0.00 | 0.00 | 73 | 1008.5 |
| 20260509090538 | 40 | 121 | 2.0 | 4.0 | 0.00 | 0.00 | 0.00 | 73 | 1008.3 |
| 20260509090059 | 40 | 121 | 2.0 | 4.0 | 0.00 | 0.00 | 0.00 | 73 | 1008.5 |
| 20260509085535 | 40 | 122 | 2.0 | 6.0 | 0.00 | 0.00 | 0.00 | 73 | 1008.5 |
| 20260509085037 | 41 | 119 | 3.0 | 6.0 | 0.00 | 0.00 | 0.00 | 73 | 1008.5 |
| 20260509084554 | 41 | 134 | 2.0 | 5.0 | 0.00 | 0.00 | 0.00 | 73 | 1008.5 |
| 20260509084035 | 41 | 136 | 3.0 | 5.0 | 0.00 | 0.00 | 0.00 | 72 | 1008.4 |
| 20260509083536 | 41 | 134 | 2.0 | 5.0 | 0.00 | 0.00 | 0.00 | 72 | 1008.3 |
| 20260509083057 | 41 | 134 | 3.0 | 5.0 | 0.00 | 0.00 | 0.00 | 72 | 1008.5 |
| 20260509082537 | 41 | 130 | 3.0 | 4.0 | 0.00 | 0.00 | 0.00 | 72 | 1008.5 |
| 20260509082038 | 41 | 136 | 2.0 | 4.0 | 0.00 | 0.00 | 0.00 | 72 | 1008.5 |
| 20260509081550 | 41 | 136 | 2.0 | 4.0 | 0.00 | 0.00 | 0.00 | 72 | 1008.5 |
| 20260509081038 | 41 | 148 | 2.0 | 4.0 | 0.00 | 0.00 | 0.00 | 72 | 1008.6 |
| 20260509080536 | 41 | 155 | 2.0 | 5.0 | 0.00 | 0.00 | 0.00 | 72 | 1008.6 |
| 20260509080053 | 41 | 157 | 2.0 | 5.0 | 0.00 | 0.00 | 0.00 | 72 | 1008.6 |
| 20260509075537 | 41 | 159 | 3.0 | 5.0 | 0.00 | 0.00 | 0.00 | 71 | 1008.6 |
| 20260509075037 | 42 | 151 | 2.0 | 5.0 | 0.00 | 0.00 | 0.00 | 71 | 1008.5 |
| 20260509074553 | 42 | 156 | 2.0 | 5.0 | 0.00 | 0.00 | 0.00 | 71 | 1008.6 |
| 20260509074038 | 42 | 145 | 3.0 | 5.0 | 0.00 | 0.00 | 0.00 | 71 | 1008.6 |
| 20260509073539 | 42 | 138 | 2.0 | 4.0 | 0.00 | 0.00 | 0.00 | 71 | 1008.5 |
| 20260509073052 | 42 | 138 | 2.0 | 4.0 | 0.00 | 0.00 | 0.00 | 71 | 1008.6 |
| 20260509072539 | 42 | 138 | 2.0 | 5.0 | 0.00 | 0.00 | 0.00 | 71 | 1008.5 |
| 20260509072038 | 42 | 144 | 2.0 | 7.0 | 0.00 | 0.00 | 0.00 | 71 | 1008.6 |
| 20260509071550 | 42 | 144 | 3.0 | 7.0 | 0.00 | 0.00 | 0.00 | 71 | 1008.6 |
| 20260509071038 | 42 | 140 | 3.0 | 5.0 | 0.00 | 0.00 | 0.00 | 71 | 1008.4 |
| 20260509070539 | 42 | 153 | 3.0 | 5.0 | 0.00 | 0.00 | 0.00 | 70 | 1008.5 |
| 20260509070048 | 42 | 156 | 2.0 | 5.0 | 0.00 | 0.00 | 0.00 | 70 | 1008.6 |
| 20260509065539 | 42 | 157 | 3.0 | 5.0 | 0.00 | 0.00 | 0.00 | 69 | 1008.5 |
| 20260509065039 | 42 | 160 | 2.0 | 4.0 | 0.00 | 0.00 | 0.00 | 69 | 1008.6 |
| 20260509064554 | 43 | 158 | 2.0 | 5.0 | 0.00 | 0.00 | 0.00 | 69 | 1008.6 |
| 20260509064041 | 43 | 171 | 2.0 | 5.0 | 0.00 | 0.00 | 0.00 | 68 | 1008.5 |
| 20260509063538 | 43 | 178 | 3.0 | 5.0 | 0.00 | 0.00 | 0.00 | 68 | 1008.6 |
| 20260509063047 | 43 | 165 | 3.0 | 5.0 | 0.00 | 0.00 | 0.00 | 68 | 1008.6 |
| 20260509062537 | 43 | 172 | 3.0 | 5.0 | 0.00 | 0.00 | 0.00 | 67 | 1008.6 |
| 20260509062037 | 43 | 168 | 3.0 | 5.0 | 0.00 | 0.00 | 0.00 | 67 | 1008.7 |
| 20260509061546 | 44 | 173 | 3.0 | 5.0 | 0.00 | 0.00 | 0.00 | 66 | 1008.7 |
| 20260509061039 | 44 | 173 | 3.0 | 4.0 | 0.00 | 0.00 | 0.00 | 66 | 1008.8 |